Weather History for KRTS - November, 2011

Change the Weather History Date:

Saturday, November 12, 2011

  Actual Average (KRNO) Record (KRNO)
Temperature  
Mean Temperature 41 °F 44 °F  
Max Temperature 50 °F 57 °F 73 °F (1990)
Min Temperature 32 °F 31 °F 5 °F (1938)
Degree Days  
Heating Degree Days 24 21  
Month to date heating degree days 229  
Since 1 July heating degree days 665  
Cooling Degree Days 0 0  
Month to date cooling degree days 0  
Year to date cooling degree days 839  
Moisture  
Dew Point 30 °F    
Average Humidity 69    
Maximum Humidity 87    
Minimum Humidity 47    
Precipitation  
Precipitation 0.00 in 0.03 in 0.48 in (1910)
Month to date precipitation 0.28  
Year to date precipitation 5.83  
Snow  
Snow - 0.10 in 3.30 in (1964)
Month to date snowfall 0.9  
Since 1 July snowfall 1.3  
Since 1 September snowfall 1.3  
Snow Depth -    
Sea Level Pressure  
Sea Level Pressure 29.90 in    
Wind  
Wind Speed 6 mph ()    
Max Wind Speed 15 mph    
Max Gust Speed 21 mph    
Visibility 10.0 miles    
Events      
T = Trace of Precipitation, MM = Missing Value Source: Averaged Metar Reports

Daily Weather History Graph

Daily Weather History Graph

Search for Another Location

Airport or City:

Trip Planner

Search our weather history database for the weather conditions in past years. The results will help you decide how hot, cold, wet, or windy it might be!

Date:

Astronomy

Nov. 12, 2011 Rise Set
Actual Time 6:40 AM PST 4:46 PM PST
Civil Twilight 6:11 AM PST 5:15 PM PST
Nautical Twilight 5:39 AM PST 5:47 PM PST
Astronomical Twilight 5:07 AM PST 6:19 PM PST
Moon 6:07 PM PST (11/12) 8:26 AM PST (11/12)
Length of Visible Light 11h 03m
Length of Day
10h 06m
Waning Gibbous, 96% of the Moon is Illuminated
Nov 12
Waning Gibbous
Nov 18
Last Quarter
Nov 24
New
Dec 2
First Quarter
Dec 10
Full

Hourly Weather History & Observations

Time (PST) Temp. Windchill Dew Point Humidity Pressure Visibility Wind Dir Wind Speed Gust Speed Precip Events Conditions
12:15 AM 39.2 °F 35.0 °F 32.0 °F 75% 29.84 in 10.0 mi NW 5.8 mph - N/A   Overcast
12:35 AM 37.4 °F 33.8 °F 32.0 °F 81% 29.85 in 10.0 mi NNW 4.6 mph - N/A   Mostly Cloudy
12:55 AM 37.4 °F 34.9 °F 32.0 °F 81% 29.85 in 10.0 mi NNW 3.5 mph - N/A   Mostly Cloudy
1:15 AM 37.4 °F - 32.0 °F 81% 29.85 in 10.0 mi Calm Calm - N/A   Scattered Clouds
1:35 AM 35.6 °F 29.9 °F 30.2 °F 81% 29.85 in 10.0 mi NW 6.9 mph - N/A   Partly Cloudy
1:55 AM 35.6 °F 28.6 °F 30.2 °F 81% 29.84 in 10.0 mi NW 9.2 mph - N/A   Scattered Clouds
2:15 AM 35.6 °F 30.7 °F 30.2 °F 81% 29.85 in 10.0 mi WNW 5.8 mph - N/A   Mostly Cloudy
2:35 AM 35.6 °F 28.6 °F 30.2 °F 81% 29.84 in 10.0 mi West 9.2 mph - N/A   Partly Cloudy
2:55 AM 37.4 °F 31.4 °F 32.0 °F 81% 29.84 in 10.0 mi West 8.1 mph - N/A   Clear
3:15 AM 35.6 °F 31.7 °F 32.0 °F 87% 29.84 in 10.0 mi SE 4.6 mph - N/A   Clear
3:35 AM 35.6 °F 32.8 °F 32.0 °F 87% 29.83 in 10.0 mi NW 3.5 mph - N/A   Clear
3:55 AM 32.0 °F 26.4 °F 28.4 °F 87% 29.81 in 10.0 mi NNW 5.8 mph - N/A   Clear
4:15 AM 37.4 °F 29.8 °F 32.0 °F 81% 29.81 in 10.0 mi WNW 11.5 mph - N/A   Clear
4:35 AM 35.6 °F 29.2 °F 30.2 °F 81% 29.82 in 10.0 mi NW 8.1 mph - N/A   Clear
4:55 AM 37.4 °F 31.4 °F 32.0 °F 81% 29.83 in 10.0 mi NW 8.1 mph - N/A   Scattered Clouds
5:15 AM 37.4 °F - 32.0 °F 81% 29.84 in 10.0 mi Calm Calm - N/A   Scattered Clouds
5:35 AM 37.4 °F 32.1 °F 32.0 °F 81% 29.84 in 10.0 mi SW 6.9 mph - N/A   Clear
5:55 AM 37.4 °F 31.4 °F 32.0 °F 81% 29.85 in 10.0 mi NNW 8.1 mph - N/A   Clear
6:15 AM 35.6 °F 31.7 °F 32.0 °F 87% 29.85 in 10.0 mi North 4.6 mph - N/A   Clear
6:35 AM 35.6 °F 29.2 °F 32.0 °F 87% 29.85 in 10.0 mi NNW 8.1 mph - N/A   Clear
6:55 AM 35.6 °F 29.9 °F 32.0 °F 87% 29.86 in 10.0 mi NW 6.9 mph - N/A   Clear
7:15 AM 35.6 °F 29.9 °F 32.0 °F 87% 29.87 in 10.0 mi NNW 6.9 mph - N/A   Clear
7:35 AM 37.4 °F - 32.0 °F 81% 29.88 in 10.0 mi Calm Calm - N/A   Clear
7:55 AM 39.2 °F 37.0 °F 32.0 °F 75% 29.88 in 10.0 mi SW 3.5 mph - N/A   Clear
8:15 AM 39.2 °F 37.0 °F 32.0 °F 75% 29.89 in 10.0 mi WSW 3.5 mph - N/A   Clear
8:35 AM 39.2 °F 34.2 °F 32.0 °F 75% 29.88 in 10.0 mi NW 6.9 mph - N/A   Clear
8:55 AM 41.0 °F 38.0 °F 32.0 °F 70% 29.90 in 10.0 mi NW 4.6 mph - N/A   Partly Cloudy
9:15 AM 42.8 °F 36.2 °F 32.0 °F 66% 29.90 in 10.0 mi WNW 12.7 mph - N/A   Scattered Clouds
9:35 AM 44.6 °F 39.7 °F 32.0 °F 61% 29.91 in 10.0 mi WNW 9.2 mph - N/A   Mostly Cloudy
9:55 AM 44.6 °F 41.4 °F 32.0 °F 61% 29.91 in 10.0 mi NW 5.8 mph - N/A   Overcast
10:15 AM 44.6 °F 39.7 °F 32.0 °F 61% 29.91 in 10.0 mi WSW 9.2 mph - N/A   Scattered Clouds
10:35 AM 46.4 °F 42.4 °F 32.0 °F 57% 29.91 in 10.0 mi WNW 8.1 mph - N/A   Partly Cloudy
10:55 AM 46.4 °F 42.4 °F 32.0 °F 57% 29.91 in 10.0 mi WNW 8.1 mph - N/A   Clear
11:15 AM 46.4 °F 41.9 °F 32.0 °F 57% 29.91 in 10.0 mi WNW 9.2 mph - N/A   Clear
11:35 AM 48.2 °F - 32.0 °F 54% 29.91 in 10.0 mi WNW 11.5 mph 16.1 mph N/A   Mostly Cloudy
11:55 AM 48.2 °F - 30.2 °F 50% 29.90 in 10.0 mi NW 9.2 mph - N/A   Mostly Cloudy
12:15 PM 48.2 °F - 30.2 °F 50% 29.90 in 10.0 mi NW 10.4 mph 16.1 mph N/A   Mostly Cloudy
12:35 PM 48.2 °F - 30.2 °F 50% 29.89 in 10.0 mi NW 13.8 mph - N/A   Overcast
12:55 PM 50.0 °F - 30.2 °F 47% 29.88 in 10.0 mi WNW 13.8 mph - N/A   Overcast
1:15 PM 48.2 °F - 30.2 °F 50% 29.89 in 10.0 mi NW 13.8 mph - N/A   Mostly Cloudy
1:35 PM 48.2 °F - 30.2 °F 50% 29.89 in 10.0 mi NW 13.8 mph - N/A   Overcast
1:55 PM 50.0 °F - 30.2 °F 47% 29.89 in 10.0 mi NW 11.5 mph - N/A   Scattered Clouds
2:15 PM 48.2 °F - 30.2 °F 50% 29.89 in 10.0 mi NW 12.7 mph - N/A   Scattered Clouds
2:35 PM 48.2 °F - 30.2 °F 50% 29.88 in 10.0 mi WNW 9.2 mph - N/A   Mostly Cloudy
2:55 PM 50.0 °F - 30.2 °F 47% 29.89 in 10.0 mi WNW 9.2 mph 16.1 mph N/A   Mostly Cloudy
3:15 PM 48.2 °F - 30.2 °F 50% 29.91 in 10.0 mi NW 10.4 mph 17.3 mph N/A   Mostly Cloudy
3:35 PM 48.2 °F - 30.2 °F 50% 29.91 in 10.0 mi NW 15.0 mph 20.7 mph N/A   Scattered Clouds
3:55 PM 46.4 °F 40.7 °F 30.2 °F 53% 29.92 in 10.0 mi NW 12.7 mph - N/A   Partly Cloudy
4:15 PM 46.4 °F 41.1 °F 30.2 °F 53% 29.92 in 10.0 mi NW 11.5 mph - N/A   Clear
4:35 PM 44.6 °F 40.2 °F 30.2 °F 57% 29.93 in 10.0 mi NW 8.1 mph - N/A   Clear
4:55 PM 44.6 °F 40.2 °F 30.2 °F 57% 29.93 in 10.0 mi NW 8.1 mph - N/A   Clear
5:15 PM 41.0 °F 36.4 °F 28.4 °F 61% 29.94 in 10.0 mi WNW 6.9 mph - N/A   Clear
5:35 PM 41.0 °F 36.4 °F 28.4 °F 61% 29.94 in 10.0 mi West 6.9 mph - N/A   Clear
5:55 PM 41.0 °F 37.1 °F 28.4 °F 61% 29.95 in 10.0 mi WSW 5.8 mph - N/A   Clear
6:15 PM 39.2 °F 37.0 °F 28.4 °F 65% 29.96 in 10.0 mi NNW 3.5 mph - N/A   Clear
6:35 PM 39.2 °F 33.6 °F 28.4 °F 65% 29.95 in 10.0 mi SW 8.1 mph - N/A   Clear
7:15 PM 37.4 °F 32.1 °F 28.4 °F 70% 29.95 in 10.0 mi West 6.9 mph - N/A   Clear
7:55 PM 37.4 °F 33.8 °F 28.4 °F 70% 29.95 in 10.0 mi East 4.6 mph - N/A   Clear
8:15 PM 39.2 °F - 28.4 °F 65% 29.95 in 10.0 mi Calm Calm - N/A   Clear
8:35 PM 32.0 °F 27.5 °F 26.6 °F 80% 29.96 in 10.0 mi North 4.6 mph - N/A   Clear
8:55 PM 33.8 °F 30.8 °F 26.6 °F 75% 29.96 in 10.0 mi ENE 3.5 mph - N/A   Clear
9:15 PM 37.4 °F - 28.4 °F 70% 29.96 in 10.0 mi Calm Calm - N/A   Clear
9:35 PM 35.6 °F - 26.6 °F 70% 29.95 in 10.0 mi Calm Calm - N/A   Clear
9:55 PM 35.6 °F 30.7 °F 28.4 °F 75% 29.95 in 10.0 mi ENE 5.8 mph - N/A   Clear
10:15 PM 33.8 °F - 28.4 °F 81% 29.95 in 10.0 mi Calm Calm - N/A   Scattered Clouds
10:35 PM 35.6 °F - 28.4 °F 75% 29.95 in 10.0 mi Calm Calm - N/A   Mostly Cloudy
11:15 PM 32.0 °F 27.5 °F 26.6 °F 80% 29.95 in 10.0 mi North 4.6 mph - N/A   Mostly Cloudy
11:35 PM 35.6 °F 31.7 °F 28.4 °F 75% 29.95 in 10.0 mi North 4.6 mph - N/A   Scattered Clouds
11:55 PM 35.6 °F 31.7 °F 28.4 °F 75% 29.96 in 10.0 mi NNW 4.6 mph - N/A   Mostly Cloudy